Вернуться в каталог

STARLINK-30603

АктивенСвязьVLEO
NORAD 58080·PAYLOAD·🇺🇸 United States

Запущен Oct 18, 2023 с Cape Canaveral Space Force Station

Loading…

Ближайшие Пролёты (ближайшие 24 часа)

TLE

СвежийSource: CelesTrak SupGP

Эпоха: Sep 15, 2026, 01:46 UTC

1 58080C 23160F   26258.07409722  .00026670  00000+0  96583-3 0  2589
2 58080  43.0007  88.3667 0001402 272.3756 297.9114 15.27570706    18

Отслеживайте STARLINK-30603 в реальном времени с AllMySat

Download on the App Store